Погода в Пехлеце

Россия / Рязанская область     53°56′23″N   40°06′23″E
темп.,
°C
ветер,
м/с
пор.,
м/с
влажн.,
%
обл.,
%
осадки,
мм/ч
давл.,
гПа
погр.,
м
18 апреля, вс
вс1800:00+8ююз3594100 4.4 1018346
03:00+7ююв1293100 7.7 1018170
06:00+7ююв229353 0.2 101944
09:00+10ю22726 0.2 1019745
12:00+12вюв345641 0.2 10181448
15:00+12ююв565899 0.9 10191194
18:00+11вюв2469100 0.1 1019224
21:00+9всв3679100 0.1 1020142
19 апреля, пн
пн1900:00+7всв4891100 0.1 1020226
03:00+7в51193100 0.8 1020384
06:00+7всв61089100 0.4 1020549
09:00+7всв5793100 2.7 10201006
12:00+5всв71091100 1.3 1020715
15:00+3всв61196100 1.8 1021555
18:00+4всв61197100 0.1 1021716
21:00+4в51095100 1.7 1021751
20 апреля, вт
вт2000:00+4в51196100 5.4 1021704
03:00+5в51192100 5.5 1020552
06:00+5в61293100 0.1 1020576
09:00+6в71290100 0.1 1020606
12:00+8в71182100 0.0 1020816
15:00+6в71586100 0.1 1018902
18:00+6в101984100 0.8 1015947
21:00+6в122288100 4.3 1011966
21 апреля, ср
ср2100:00+6вюв122390100 7.0 10071408
03:00+7юв112088100 8.7 1005925
06:00+7юв91791100 1.5 1004934
09:00+9ююв91588100 4.3 10041262
12:00+9ююв91489100 0.4 10051359
15:00+7ююз81277100 1.2 10091195
18:00+7ююз81380100 0.1 10121080
21:00+7ююз71283100 0.1 1015781
22 апреля, чт
чт2200:00+6ю5118797 0.0 1016363
03:00+6ююз51186100 0.1 1018371
06:00+6ююз488886 0.0 1020268
09:00+9ююз4668100 0.1 1021478
12:00+12юз565584 0.1 10221574
15:00+13юз565271 0.3 10221765
18:00+12ююз466642 0.2 1023347
21:00+9ю367961 0.4 1025115